Home   Weather   40°43'N, 74°00'W   Past weeks
Flag for USA

Past Weather in 40°43'N, 74°00'W, USA — Yesterday and Last 2 Weeks

Now
76 °F

Sunny.


Feels Like: 78 °F
Forecast: 86 / 71 °F
Wind: 3 mph from North

Location: New York City - Central Park

Current Time: Jun 26, 2019 at 10:13:28 am

Latest Report: Jun 26, 2019 at 8:51 am


Visibility: 10 mi

Pressure: 30.03 "Hg

Humidity: 67%

Dew Point: 64 °F

Location of 40°43'N, 74°00'WLocation

Past Weather in 40°43'N, 74°00'W — Graph

°F

40°43'N, 74°00'W Temperature Yesterday

Maximum temperature yesterday: 83 °F (at 4:51 pm)
Minimum temperature yesterday: 72 °F (at 6:51 am)
Average temperature yesterday: 75 °F

High & Low Weather Summary for the Past Weeks

 TemperatureHumidityPressure
High84 °F (Jun 24, 1:51 pm)97% (Jun 14, 1:51 am)30.19 "Hg (Jun 14, 1:51 am)
Low55 °F (Jun 13, 10:14 am)30% (Jun 14, 6:51 pm)29.43 "Hg (Jun 21, 3:51 am)
Average70 °F73%29.86 "Hg
* Reported Jun 11 8:51 am — Jun 26 8:51 am, 40°43'N, 74°00'W. Weather by CustomWeather, © 2019

Note: Actual official high and low records may vary slightly from our data, if they occured in-between our weather recording intervals... More about our weather records

Advertising

40°43'N, 74°00'W Weather History for the Previous 24 Hours

Scroll right to see more
 ConditionsComfort  
Time TempWeatherWind HumidityBarometerVisibility
8:51 am
Wed, Jun 26
76 °FSunny.3 mph67%30.03 "Hg10 mi
7:51 am74 °FSunny.3 mph74%30.02 "Hg10 mi
6:51 am74 °FSunny.3 mph74%30.00 "Hg10 mi
5:51 am72 °FSunny.No wind84%29.99 "Hg9 mi
4:51 am72 °FClear.5 mph87%29.97 "Hg8 mi
3:51 am73 °FClear.3 mph81%29.95 "Hg10 mi
2:51 am73 °FFog.No wind90%29.93 "Hg4 mi
1:51 am74 °FClear.No wind85%29.90 "Hg8 mi
12:51 am74 °FClear.No wind88%29.89 "Hg9 mi
11:51 pm
Tue, Jun 25
74 °FClear.No wind88%29.89 "Hg7 mi
10:51 pm75 °FClear.5 mph85%29.88 "Hg9 mi
9:51 pm77 °FPassing clouds.No wind77%29.86 "Hg10 mi
8:51 pm78 °FPassing clouds.No wind74%29.84 "Hg10 mi
7:51 pm80 °FPartly sunny.No wind71%29.83 "Hg10 mi
6:51 pm83 °FSunny.3 mph61%29.81 "Hg10 mi
5:51 pm82 °FSunny.N/A65%29.80 "Hg10 mi
4:51 pm83 °FSunny.3 mph65%29.80 "Hg10 mi
3:51 pm81 °FBroken clouds.3 mph67%29.81 "Hg10 mi
2:51 pm79 °FOvercast.N/A77%29.80 "Hg10 mi
1:51 pm78 °FMore clouds than sun.5 mph82%29.81 "Hg9 mi
1:26 pm79 °FCloudy.No wind79%29.85 "Hg8 mi
12:51 pm77 °FFog.3 mph88%29.82 "Hg5 mi
11:51 am74 °FFog.No wind91%29.82 "Hg3 mi
10:51 am73 °FFog.No wind97%29.81 "Hg2 mi
10:27 am72 °FFog.No wind97%29.84 "Hg2 mi
Weather by CustomWeather, © 2019

See weather overview